Location: Acton
(51.4942°N, 0.2232°W)
Time: 04:55:16
(UTC+00:00)

Okean 2 Rocket - Pass Details

Date: 18 September 2020
Orbit: 616 x 642 km, 82.5° (Epoch: 20 October)

Event Time Altitude Azimuth Distance (km) Brightness Sun altitude
Rises 19:41:20 0° 187° (S) 2,934 6.4 -15.0°
Reaches altitude 10° 19:43:34 10° 187° (S) 2,027 5.5 -15.4°
Maximum altitude 19:48:05 86° 99° (E) 646 3.0 -16.0°
Drops below altitude 10° 19:52:36 10° 11° (NNE) 2,029 5.9 -16.6°
Sets 19:54:50 0° 11° (NNE) 2,938 6.7 -17.0°
